OBJECT A

Satellite information

Favourite Embed

Satellite Type and Status

UNKNOWNIN ORBIT

Key statistics

Satellite OBJECT A at a glance.

Uptime

329

Days in orbit

Revolutions

≈ 15.2

Per day

Orbit

SSO

Sun Synchronous Orbit

Inclination

97.6

Latest

Satellite identification and parameters

Extended collection of information and parameters for OBJECT A.

Object identification

Identified? True

Debris? False

Object name: OBJECT A

International designator: 2025-013A

Object number (NORAD): 62729

Object ID (CCSDS): 62729

Country: PEOPLES REPUBLIC OF CHINA (PRC)

Current information (Y/N): Y

RCS size: MEDIUM

Orbital parameters

Period: 94.503 minutes

Inclination: 97.6308 deg

SMA: 6872.665 km

Apoapsis: 501.455 km

Periapsis: 487.604 km

RAAN: 157.0445 deg

Eccentricy: 0.00100773

Argument of periapsis: 226.7424 deg

Mean anomaly: 133.2973 deg

Mean motion: 15.23754618 rev/day

Mean motion (dot): 0.00025654 rev/day2

B* drag term: 0.0010657674 1/REarth

Two-line elements (TLE)

Creation date: Dec. 14, 2025, 6:24 p.m.

Reference frame: TEME

Reference center: EARTH

Epoch: Dec. 14, 2025, 8:37 a.m. UTC

TLE line 0: 0 OBJECT A

TLE line 1: 1 62729U 25013A 25348.35916025 .00025654 00000-0 10658-2 0 9994

TLE line 2: 2 62729 97.6308 157.0445 0010077 226.7424 133.2973 15.23754618 49709

Live tracking on map

Real-time ground track for satellite OBJECT A.

In-orbit conjunctions

There are no conjunctions computed for OBJECT A, at the moment. Check back to stay up to date, as we update our databases every day.

Go to all conjunctions

Associated space launch

Carried 5 satellites to sun synchronous orbit: * Yunyao-1 37 to 40 * Jitianxing A-05

OBJECT A was lifted into orbit during the mission ‘Ceres-1 | 5 satellites’, on board a Ceres-1 space rocket.

The launch took place on Jan. 20, 2025, 10:11 a.m. from Launch Area 95A.

For more information about the launch, click the button.

Launch to space Ceres-1 | 5 satellites
Ceres-1 | 5 satellites

Agency: N/A

Status: Launch Successful

Launch date: Jan. 20, 2025, 10:11 a.m. UTC

Rocket: Ceres-1

Launch pad: Launch Area 95A

Location: Jiuquan Satellite Launch Center, People's Republic of China

...

Latest news about this satellite

There are no fresh news available about this satellite. Check back as we update our databases every day.


Newsletter sign-up

Weekly statistics, charts and insights to help you stay on top of the space industry.